{"data":{"norad_id":51653,"intl_designator":"2022-012AH","name":"ONEWEB-0473","alt_names":[],"object_type":"PAYLOAD","status":"ACTIVE","operator":null,"country":"UK","launch_date":"2022-02-10","launch_site_code":"FRGUI","launch_vehicle":null,"mission":null,"orbit_class":"UNKNOWN","rcs_meters":null,"size_class":null,"mass_kg":null,"dimensions":null,"purposes":["comms"],"wikipedia_slug":null,"has_3d_model":false,"image_url":null,"decayed_at":null,"tle_current":{"epoch":"2026-05-25T02:48:59.980032Z","epoch_age_seconds":68054,"freshness":"FRESH","line1":"1 51653U 22012AH  26145.11736088 -.00000614  00000+0 -17955-2 0  9990","line2":"2 51653  87.8852  40.8695 0001928  76.9223 283.2119 13.10371770206285","mean_motion":13.1037177,"eccentricity":0.0001928,"inclination_deg":87.8852,"raan_deg":40.8695,"arg_perigee_deg":76.9223,"mean_anomaly_deg":283.2119,"bstar":-0.0017955,"rev_number":20628,"period_min":109.89247730818,"perigee_km":1220.2559463551,"apogee_km":1223.1864516767,"semimajor_km":7599.8581990159,"source":"CELESTRAK","updated_at":"2026-05-25T13:38:22.583050Z"}}}